Location: Kott?ru
(16.6209°N, 80.6208°E)
Time: 14:38:45
(UTC+00:00)

Cosmos 2151 Rocket - Pass Details

Date: 18 September 2020
Orbit: 617 x 642 km, 82.5° (Epoch: 30 October)

Event Time Altitude Azimuth Distance (km) Brightness Sun altitude
Rises 13:43:39 0° 169° (S) 2,884 6.8 -16.8°
Reaches altitude 10° 13:45:58 10° 162° (SSE) 1,983 5.9 -17.3°
Maximum altitude 13:50:05 40° 92° (E) 916 3.9 -18.3°
Drops below altitude 10° 13:54:14 10° 23° (NNE) 2,000 6.0 -19.3°
Sets 13:56:34 0° 16° (NNE) 2,912 6.9 -19.9°
